This is the latest recevied weather packets stored in our database for station/object DW9280. If no packets are shown the sender has not sent any weather packets the latest 10 day(s).
| Time | Temp. | Humidity | Pressure | Rain* | Wind** | Luminosity | Snow |
|---|---|---|---|---|---|---|---|
| 1787755752 | 26.67° C | 51% | 1014.9 hPa | 0 mm | - | 260 W/m² | - |
| 1787755327 | 26.67° C | 51% | 1014.9 hPa | 0 mm | - | 485 W/m² | - |
| 1787755026 | 26.67° C | 52% | 1014.9 hPa | 0 mm | - | 577 W/m² | - |
| 1787754726 | 26.67° C | 51% | 1015 hPa | 0 mm | - | 223 W/m² | - |
| 1787754429 | 26.67° C | 51% | 1015.1 hPa | 0 mm | - | 645 W/m² | - |
| 1787754130 | 26.67° C | 52% | 1015 hPa | 0 mm | - | 575 W/m² | - |
| 1787753826 | 26.11° C | 53% | 1015 hPa | 0 mm | - | 274 W/m² | - |
| 1787753526 | 26.67° C | 51% | 1015 hPa | 0 mm | - | 294 W/m² | - |
| 1787753228 | 26.67° C | 52% | 1015 hPa | 0 mm | - | 657 W/m² | - |
| 1787752928 | 26.67° C | 51% | 1015.1 hPa | 0 mm | - | 626 W/m² | - |
| 1787752628 | 26.67° C | 51% | 1015 hPa | 0 mm | - | 598 W/m² | - |
| 1787752528 | 26.67° C | 51% | 1015.1 hPa | 0 mm | - | 573 W/m² | - |
| 1787752065 | 26.67° C | 51% | 1015.1 hPa | 0 mm | - | 587 W/m² | - |
| 1787751851 | 26.67° C | 52% | 1015.2 hPa | 0 mm | - | 589 W/m² | - |
| 1787751427 | 26.67° C | 51% | 1015.2 hPa | 0 mm | - | 591 W/m² | - |
| 1787751126 | 26.67° C | 50% | 1015.3 hPa | 0 mm | - | 606 W/m² | - |
| 1787750950 | 26.67° C | 51% | 1015.2 hPa | 0 mm | - | 608 W/m² | - |
| 1787750529 | 26.67° C | 50% | 1015.3 hPa | 0 mm | - | 617 W/m² | - |
| 1787750227 | 26.67° C | 50% | 1015.3 hPa | 0 mm | - | 629 W/m² | - |
| 1787749926 | 26.67° C | 52% | 1015.3 hPa | 0 mm | - | 638 W/m² | - |
| 1787749628 | 26.67° C | 50% | 1015.4 hPa | 0 mm | - | 642 W/m² | - |
| 1787749327 | 26.67° C | 52% | 1015.5 hPa | 0 mm | - | 649 W/m² | - |
| 1787749027 | 26.67° C | 50% | 1015.4 hPa | 0 mm | - | 659 W/m² | - |
| 1787748727 | 26.11° C | 50% | 1015.6 hPa | 0 mm | - | 661 W/m² | - |
| 1787748430 | 26.11° C | 51% | 1015.5 hPa | 0 mm | - | 664 W/m² | - |
* Rain latest hour (hover to see other rain measurements)
** Current wind speed in m/s (hover to see current wind gust speed)